Location: Tucson
(32.2217°N, 110.9265°W)
Time: 14:14:37
(UTC-07:00)

ISS - Visible Passes

Search period start: 20 February 2018 00:00
Search period end: 02 March 2018 00:00
Orbit: 403 x 407 km, 51.6° (Epoch: 21 February)

Date Brightness Start Highest point End Pass type
(mag) Time Alt. Az. Time Alt. Az. Time Alt. Az.
22 Feb -0.5 06:21:23 10° SSE 06:22:46 12° SE 06:24:08 10° E visible
24 Feb -2.1 06:11:31 10° SSW 06:14:31 34° SE 06:17:31 10° ENE visible
25 Feb -0.9 05:20:20 10° SSE 05:22:25 16° SE 05:24:31 10° E visible
26 Feb -3.9 06:03:22 12° SW 06:06:22 72° NW 06:09:37 10° NE visible
27 Feb -3.0 05:14:03 47° SE 05:14:08 47° SE 05:17:17 10° ENE visible
28 Feb -0.2 04:24:29 10° ENE 04:24:29 10° ENE 04:24:30 10° ENE visible
28 Feb -2.6 05:57:10 21° WNW 05:58:19 26° NW 06:01:08 10° NNE visible
01 Mar -2.1 05:07:24 27° NNE 05:07:24 27° NNE 05:09:08 10° NE visible
